Theta_e
305 308 315 316 318 316 318 318 318 319 319 318 319 321 322 322 327 325 313 313 312 311 309 308 307 307 307 307 307 313 320 329 331 337 337 336 335 333 330 328 330 331 335 338 338 334 333 333 334
307 312 316 318 316 318 318 319 317 317 319 317 317 318 319 321 311 310 311 311 311 310 310 308 308 307 307 306 306 306 306 307 312 319 330 334 337 336 334 330 327 331 336 336 337 336 334 333 333
308 314 317 317 317 316 317 316 316 317 317 317 317 314 317 316 310 311 310 310 310 310 310 310 309 309 308 307 306 306 306 305 305 306 308 321 331 336 336 335 329 329 335 336 337 337 336 335 333
310 313 312 314 316 316 315 315 315 316 316 313 316 317 311 310 309 309 309 309 309 311 312 311 310 309 308 307 306 305 305 305 305 305 305 305 313 327 334 336 336 328 328 334 337 337 336 336 336
310 313 314 314 314 315 315 313 312 314 315 315 313 317 314 308 307 307 309 308 308 310 310 310 309 308 306 305 304 304 305 305 305 305 305 305 305 306 318 328 336 335 330 326 332 335 336 336 335
311 311 313 314 315 315 312 311 312 313 314 313 312 314 313 307 308 307 307 308 309 310 309 309 308 305 304 304 304 305 305 305 305 305 305 305 305 305 305 309 324 336 336 333 326 327 332 334 335
311 313 313 314 314 313 313 310 311 312 312 313 311 314 310 306 307 307 307 307 308 309 308 307 305 304 304 304 304 304 303 303 303 303 303 303 304 304 304 304 305 320 333 336 335 330 327 328 331
309 311 312 312 312 313 311 309 308 309 312 308 308 313 312 307 306 306 306 306 307 307 306 304 304 303 303 304 304 303 302 302 302 302 302 302 302 303 303 304 304 304 313 326 335 336 333 330 329
306 310 312 313 312 312 308 309 308 307 308 307 308 308 306 306 305 305 304 304 304 305 304 303 303 303 303 303 302 303 302 301 300 300 300 301 301 301 301 302 303 303 303 307 319 329 334 335 332
308 311 314 311 310 309 309 308 309 308 309 309 308 306 305 305 304 304 304 304 303 303 303 303 302 302 302 302 302 301 300 300 300 300 300 300 300 301 301 301 301 302 303 303 303 313 322 332 334
308 311 309 309 307 307 307 307 307 308 309 310 310 309 305 304 304 304 304 304 304 303 302 302 302 302 302 302 301 301 300 300 300 300 300 300 301 301 301 301 301 300 300 302 302 302 307 317 326
307 308 307 307 306 306 307 307 307 307 308 307 308 307 307 304 305 304 305 305 304 303 301 302 302 301 301 300 300 300 300 301 301 301 301 301 300 300 300 300 301 301 300 300 300 301 302 303 313
308 309 307 306 306 305 306 306 307 307 307 307 306 304 306 305 305 305 304 304 304 302 300 301 301 300 300 300 300 300 300 300 300 300 300 300 300 300 300 299 300 300 300 299 299 299 300 301 302
307 306 306 306 307 306 305 306 305 306 307 306 306 305 304 305 305 305 304 304 303 301 300 300 300 300 299 299 299 299 299 299 299 299 299 299 299 299 299 299 299 299 299 299 299 299 298 299 300
305 306 308 309 308 307 304 306 306 306 307 305 306 305 305 304 304 304 304 302 301 300 299 300 299 299 299 299 299 299 299 299 299 299 299 298 298 298 298 298 298 298 298 298 298 298 298 298 299
306 309 314 308 306 305 304 312 312 306 306 306 306 306 305 304 303 303 302 301 300 299 300 299 299 299 298 298 298 298 298 298 298 297 297 296 296 295 296 296 297 297 297 297 297 298 298 298 299
311 314 315 313 307 306 305 309 311 306 306 306 307 307 306 305 303 302 301 300 299 299 298 298 298 298 298 297 297 297 297 297 296 296 295 294 294 294 294 295 295 296 296 297 297 297 298 299 300
315 314 312 311 309 306 307 308 309 308 308 308 308 307 307 306 305 302 300 299 298 298 298 298 297 297 296 296 296 296 296 295 295 295 294 294 293 293 294 294 295 296 297 298 297 297 298 298 299
307 308 309 309 309 307 307 308 308 308 308 308 308 308 307 305 302 299 298 298 298 298 297 296 296 295 296 295 295 295 295 295 295 293 293 293 293 293 293 294 294 295 296 297 299 298 298 298 299
306 307 308 309 305 303 306 307 307 307 308 306 305 304 303 301 298 297 296 296 296 295 296 295 294 294 294 294 294 293 294 294 293 292 292 292 292 293 293 293 293 294 294 295 296 298 299 299 300
307 308 308 307 306 306 305 309 312 307 304 302 301 300 300 300 298 295 296 296 295 294 293 294 293 293 293 293 293 293 292 292 291 291 291 291 292 292 292 292 292 293 293 294 295 297 298 298 299
308 304 303 304 306 311 305 312 312 311 307 304 302 301 299 298 296 295 295 295 294 293 294 293 293 293 292 292 292 291 291 290 290 290 291 291 291 292 292 292 292 291 291 293 294 295 296 297 297
307 303 303 304 305 306 309 309 313 307 305 303 302 300 298 296 295 294 294 294 293 293 293 292 292 293 292 292 291 290 290 290 290 290 291 291 291 292 293 293 293 292 291 291 293 293 294 294 296
302 303 305 304 306 309 308 308 313 308 306 303 302 300 297 296 294 293 293 293 292 292 291 291 291 291 290 290 290 290 290 290 291 290 290 291 291 291 291 291 291 291 292 292 290 291 294 295 295
303 307 315 315 311 316 303 304 309 306 303 302 301 299 297 296 295 294 293 292 290 289 289 290 290 289 289 289 290 290 290 290 290 290 290 290 290 292 292 292 291 291 291 290 290 291 293 294 295
306 307 312 315 316 313 301 309 308 302 299 296 296 296 297 296 295 293 291 291 289 289 289 289 289 288 289 290 290 290 290 289 289 290 289 290 292 292 292 292 292 291 291 289 290 291 292 294 296
304 305 303 307 302 306 309 309 303 302 302 301 300 298 297 295 293 292 292 290 289 290 290 290 289 290 290 290 290 290 290 290 291 291 291 292 291 292 292 292 292 292 292 292 293 293 293 294 295
302 301 305 306 310 312 311 310 313 306 304 300 299 297 296 295 293 292 291 290 290 290 290 290 290 291 290 290 290 290 289 290 290 291 291 291 291 291 292 292 293 293 294 293 293 294 293 294 295
301 303 302 303 305 311 313 313 303 306 299 298 298 297 296 294 293 293 292 292 292 291 290 290 291 290 291 290 289 289 290 290 290 291 290 291 292 292 292 293 293 294 294 294 293 293 294 294 295
300 304 304 307 307 305 304 310 300 299 296 296 298 298 296 294 292 293 294 293 292 291 291 292 291 291 290 290 290 290 290 290 290 290 290 290 291 291 291 291 292 292 292 293 293 293 294 293 294
Wind_Speed
4 6 4 5 6 6 11 11 10 4 3 1 2 4 4 4 2 1 11 13 13 12 9 9 7 5 4 3 3 2 2 2 3 4 6 7 7 9 12 14 14 13 15 15 14 15 16 16 16
7 7 4 5 7 10 9 11 8 8 4 4 4 4 4 2 5 11 12 14 13 13 11 10 7 3 1 2 3 4 4 4 5 6 7 6 8 10 11 13 14 14 13 16 16 16 17 17 17
9 9 8 4 9 13 10 4 6 3 2 5 5 3 2 4 6 14 10 17 15 14 12 10 7 4 3 4 6 7 9 9 9 8 8 8 10 8 13 12 12 15 14 15 17 17 18 18 18
4 5 6 7 14 10 8 3 3 4 5 5 4 5 3 6 9 9 14 16 14 15 13 10 8 6 6 7 9 11 12 12 13 13 12 11 12 13 12 13 14 14 17 18 18 19 19 19 20
5 5 8 9 14 13 4 9 6 8 6 7 8 3 2 5 9 12 15 14 13 14 12 10 9 8 9 10 12 13 15 16 16 16 16 15 15 15 16 13 13 18 17 19 20 20 21 20 21
7 5 8 12 14 10 4 10 10 11 11 5 6 8 3 7 11 13 14 13 13 13 12 11 10 9 11 12 14 16 17 18 19 19 19 18 17 18 19 18 15 15 19 20 21 23 24 24 23
10 7 14 15 15 14 10 2 11 10 13 12 4 7 3 9 14 15 14 14 14 13 13 12 12 12 13 14 15 16 16 16 16 17 17 17 19 19 20 21 21 19 18 20 23 23 24 25 26
7 4 10 7 9 12 5 3 3 10 11 5 4 5 6 12 15 15 14 13 14 15 14 13 13 13 14 16 15 15 15 15 15 15 16 17 17 18 21 22 24 24 23 22 22 24 27 27 27
3 6 9 13 8 3 1 4 4 3 8 6 8 5 4 12 15 14 13 14 14 16 16 14 13 14 15 16 16 16 15 15 15 15 16 17 18 19 19 21 23 25 26 26 26 25 26 27 29
7 6 8 7 6 7 5 7 6 5 10 16 14 10 11 13 14 15 15 14 15 14 16 15 14 14 14 15 16 16 16 15 16 18 19 18 18 20 21 22 22 24 26 27 28 28 27 27 26
6 6 7 5 7 7 9 10 10 8 12 16 15 18 15 16 16 17 16 15 14 13 14 15 15 15 14 16 17 17 17 18 18 19 20 22 23 23 22 23 24 24 24 26 28 29 30 29 28
6 15 13 7 5 5 8 9 9 15 26 5 4 8 17 17 18 18 16 15 14 13 14 17 16 15 14 14 14 14 16 17 19 22 25 25 25 26 27 27 25 26 26 25 26 28 30 32 31
13 11 10 13 12 13 14 17 15 22 23 18 13 10 13 16 17 16 16 15 16 16 15 17 16 16 15 15 15 15 16 17 19 22 24 27 28 28 28 29 29 28 26 26 27 27 29 31 33
5 10 16 14 16 12 10 15 6 19 15 15 22 20 17 18 17 16 16 17 16 16 17 19 17 16 16 16 17 17 19 21 23 26 27 26 26 27 27 27 27 27 26 26 27 28 28 29 32
7 10 13 14 9 8 6 12 16 22 17 13 13 16 19 20 17 18 16 16 16 15 18 19 18 17 17 17 20 20 22 24 27 30 30 27 24 23 24 25 25 24 25 27 27 26 27 28 28
6 6 7 6 4 3 4 14 5 2 4 9 10 14 15 15 16 14 14 13 14 17 19 19 20 19 19 20 21 22 24 26 28 29 28 25 23 21 20 21 21 22 24 25 24 24 25 26 27
7 9 12 9 2 2 8 12 5 2 9 13 16 12 12 11 10 11 13 14 15 16 18 19 19 20 21 21 22 24 25 26 27 26 25 23 21 19 19 20 20 21 22 23 23 24 23 24 25
8 10 12 11 3 6 14 22 20 27 26 23 24 19 19 19 14 11 11 12 15 17 18 19 19 20 21 22 23 24 24 23 25 26 24 22 22 21 19 19 18 18 19 20 23 24 25 25 27
9 12 16 16 16 9 16 20 20 23 24 22 23 19 16 14 11 9 12 15 15 15 15 17 17 19 21 21 22 23 25 27 27 23 23 22 20 20 20 18 18 18 18 17 18 21 23 27 23
8 12 14 11 5 3 14 23 25 23 18 11 7 5 2 4 3 8 9 10 11 12 14 15 16 18 19 20 22 24 26 26 23 20 19 18 19 20 20 20 21 22 22 22 20 19 22 24 19
9 10 12 13 15 15 13 15 6 3 4 6 5 6 6 5 5 4 5 6 8 9 10 13 16 17 19 22 24 23 22 19 15 14 16 18 20 21 21 21 23 23 21 22 21 19 21 24 22
6 4 5 8 8 6 5 8 13 6 5 3 5 6 6 5 4 1 2 5 7 9 13 15 17 18 20 21 20 19 18 17 14 17 17 18 18 19 21 22 21 21 20 19 21 18 21 22 27
3 5 6 7 7 10 5 5 5 3 7 7 7 7 5 3 2 3 6 9 11 13 14 16 18 19 20 19 18 16 16 16 16 16 17 16 16 17 19 20 21 23 24 26 25 26 24 25 27
5 6 9 4 3 5 1 5 3 5 2 7 7 6 4 5 6 7 9 12 12 14 14 15 15 16 16 16 15 15 16 16 16 15 16 15 15 15 16 17 19 21 22 24 26 27 26 27 29
2 4 2 3 4 2 2 4 6 3 3 4 5 7 10 8 7 8 8 9 9 10 10 13 14 13 13 14 13 14 14 14 15 14 14 16 16 14 14 16 17 19 19 19 22 26 26 27 29
1 1 3 6 4 5 4 5 2 2 1 4 5 9 9 10 8 8 9 9 9 11 11 12 12 11 13 13 13 13 13 14 13 14 15 16 17 16 15 16 17 17 18 20 22 25 27 28 28
3 4 3 4 2 3 4 4 4 4 5 4 10 11 12 11 11 12 10 9 9 9 10 11 11 12 11 12 13 14 15 14 14 13 15 14 15 15 14 14 15 17 19 20 22 25 28 30 30
3 2 2 3 4 4 4 5 4 7 3 10 9 13 14 12 11 10 10 9 9 9 9 9 10 11 11 12 13 13 13 13 13 13 13 13 14 14 13 12 14 16 19 20 21 23 24 27 31
4 3 4 2 3 3 4 1 2 10 4 7 9 12 14 15 14 11 10 10 10 9 8 8 10 10 10 12 12 11 10 11 12 12 13 14 15 15 14 14 15 18 20 22 23 22 22 24 25
3 2 5 3 4 2 3 4 2 3 2 7 13 17 19 16 14 13 11 10 10 8 8 8 8 9 11 12 10 9 10 10 11 12 14 15 13 14 15 17 18 20 21 20 21 20 20 21 19
Wind_Direction
158 152 166 192 230 235 259 242 255 227 224 164 336 247 268 27 265 2 144 151 144 152 151 158 144 122 101 76 70 44 354 289 283 220 249 244 244 245 245 236 228 234 230 231 235 233 230 227 227
158 152 180 240 250 235 256 216 214 248 79 159 173 228 244 174 69 129 139 151 152 157 169 164 159 152 111 9 350 334 320 306 297 298 273 283 258 254 253 246 241 229 228 230 233 235 235 231 229
160 157 236 234 239 247 269 69 279 87 184 204 198 234 333 95 117 145 165 161 163 171 183 181 186 204 251 291 306 308 306 303 296 286 284 282 271 277 257 253 242 240 230 227 230 235 238 236 234
150 201 245 249 254 257 282 344 326 177 202 215 241 216 108 155 152 168 163 164 173 186 194 199 214 235 260 278 289 295 295 292 290 289 283 271 268 270 264 261 252 240 235 236 231 234 241 237 231
177 243 246 241 260 271 283 280 268 245 239 216 203 216 143 178 165 164 165 169 181 195 203 210 230 249 266 279 289 293 294 293 290 285 279 275 268 262 265 262 255 244 243 238 238 239 239 243 238
206 260 245 251 262 255 245 270 255 252 243 209 219 240 157 196 176 171 177 181 195 208 219 232 246 265 277 287 292 294 296 293 289 285 280 276 269 264 261 262 258 256 249 246 243 244 244 246 244
254 234 258 269 278 276 270 244 239 251 248 227 266 238 156 191 181 184 185 196 206 216 226 238 251 262 273 285 293 296 297 296 294 290 287 282 277 270 264 262 259 254 254 252 248 248 247 247 245
252 262 261 253 269 290 96 221 278 260 255 166 196 235 212 192 183 183 192 200 212 221 231 242 253 266 282 290 294 299 301 299 295 291 288 284 281 277 272 265 264 262 256 253 253 250 250 250 249
240 246 255 259 277 319 132 244 193 261 245 224 218 253 189 169 187 188 196 205 216 227 234 244 258 276 289 296 302 302 300 297 297 296 292 289 289 284 279 274 269 265 262 258 256 255 254 251 252
227 246 273 355 314 284 294 274 291 258 232 233 228 222 217 193 200 205 209 215 221 230 239 245 261 278 289 296 303 305 305 302 299 298 299 298 292 289 288 283 277 272 268 265 261 258 256 255 252
204 246 5 275 286 288 286 272 245 258 259 248 240 232 220 207 212 215 221 219 223 218 237 246 262 270 278 290 297 301 305 308 307 302 299 298 300 297 292 288 286 280 274 268 265 262 258 256 253
258 246 273 283 282 272 261 281 251 245 250 299 313 248 207 210 216 220 222 222 216 215 233 249 257 262 273 281 283 288 296 303 307 308 307 302 296 294 295 293 289 286 283 277 271 265 262 258 257
243 269 276 267 268 265 270 259 267 266 261 257 249 230 210 218 223 226 225 222 217 223 228 247 253 262 274 280 284 291 299 307 314 316 313 306 300 296 292 289 289 288 285 282 278 272 266 263 259
336 289 277 277 267 264 259 272 269 260 269 255 247 243 239 232 230 226 220 216 216 223 231 244 249 261 276 282 285 291 299 306 313 317 316 308 299 295 293 290 288 286 285 282 278 277 274 269 264
281 289 281 250 255 259 280 256 234 265 267 258 257 248 242 237 232 228 223 218 220 226 231 243 254 264 274 280 283 289 296 304 310 313 313 308 297 289 286 286 287 287 284 284 283 280 278 277 274
265 258 286 110 157 157 225 274 271 52 297 266 261 253 242 236 229 220 215 217 214 225 238 245 253 264 275 281 283 289 296 302 307 310 310 304 298 292 285 280 278 280 282 286 286 285 281 278 275
205 284 286 302 140 295 227 294 313 254 295 278 279 263 239 224 215 218 219 222 224 227 234 247 255 265 273 280 288 293 298 302 306 307 305 301 297 294 289 287 284 280 279 280 278 276 277 280 278
313 289 290 275 193 242 274 271 275 276 275 274 271 263 251 244 243 234 216 210 219 228 240 248 258 267 274 283 289 294 299 304 305 305 300 296 296 295 292 288 288 285 281 279 283 284 280 276 273
293 285 285 285 292 289 273 283 286 281 277 269 264 259 254 246 228 196 231 221 227 236 245 250 260 270 278 285 292 295 301 304 304 298 295 295 293 290 292 291 286 291 286 282 280 283 286 283 283
272 277 282 295 33 298 290 291 283 279 282 300 303 293 254 183 204 193 201 211 223 236 246 259 267 274 282 289 294 301 303 302 300 300 301 300 295 290 288 286 282 281 280 276 279 280 282 285 283
269 269 290 298 317 274 291 280 252 147 122 92 90 94 99 128 151 170 192 211 231 242 252 260 267 278 289 296 301 301 299 303 305 301 291 293 292 293 290 285 285 285 280 278 274 281 285 285 284
287 19 305 297 321 304 1 292 288 299 97 111 117 103 84 77 86 161 241 256 256 251 261 271 278 287 293 295 297 296 297 297 291 290 292 293 293 292 290 287 286 283 276 273 272 279 281 277 275
299 318 292 301 283 323 253 245 283 131 87 88 79 82 75 47 1 295 275 266 263 268 272 278 286 290 293 295 295 298 298 295 293 295 296 296 295 290 290 289 284 276 274 269 272 272 272 273 271
301 293 270 296 274 250 108 247 329 21 42 78 70 61 35 342 321 304 287 281 276 279 281 283 289 294 293 297 300 301 295 294 293 294 293 294 292 295 298 297 291 285 281 278 272 269 267 273 271
31 317 277 226 197 288 149 227 317 60 50 6 346 352 342 327 312 303 285 274 277 280 282 288 291 288 293 291 293 290 289 291 294 296 296 292 295 309 313 301 293 290 286 281 273 273 271 274 274
315 285 284 286 293 333 147 245 128 72 342 297 308 322 330 335 321 308 289 283 275 274 282 286 285 292 287 293 292 293 295 294 292 294 291 297 314 314 312 307 304 302 298 292 285 280 274 272 271
130 214 55 286 155 259 230 224 110 112 50 338 349 345 346 336 326 309 307 290 275 289 289 286 293 287 292 295 296 296 291 292 292 292 295 309 308 309 309 307 302 301 294 291 287 286 283 278 274
246 358 215 186 270 255 221 249 185 147 32 351 350 350 340 333 319 305 299 293 294 293 288 290 292 294 299 301 298 294 292 294 295 297 301 303 299 301 301 298 297 300 297 295 290 287 283 277 272
175 208 221 305 256 284 306 107 291 137 89 332 326 330 323 320 321 315 312 309 303 296 295 301 298 305 309 307 305 303 300 296 302 300 300 300 302 304 300 299 299 299 297 294 290 290 289 284 277
285 284 217 243 168 245 318 276 33 98 327 305 315 325 324 307 310 326 322 315 309 305 313 310 312 315 317 316 313 311 304 304 302 302 301 300 302 307 310 308 305 299 296 295 295 296 295 289 279